DECAYED
Showing default

SKYKRAFT-3, 56229 (Decayed)

Orbit data source: Space-Track

SKYKRAFT-3, 56229 was a payload satellite owned by SkyKraft (AU) in LEO that was launched on Mon, 12 Jun 2023 UTC via an FALCON 9 launch vehicle from the Air Force Western Test Range (AFWTR). Payload-class satellites include a variety of spacecraft equipped with specific instruments for various scientific and technological missions. These include communications satellites like Starlink; space stations such as the ISS; scientific satellites like the Hubble; Earth observation satellites from companies like Planet Labs, Umbra, and HawkEye 360; GPS; miniature CubeSats for education and research; and military/defense satellites.

Not visible in the next 10 days
Identifier
56229, 2023-084BN
Orbit
Decayed
Country
Flag of AUAU / AUS
Related business
Manufacturer
SkyKraft
Mission
Decayed Commercial Communications
Bus & Motor
SKYKRAFT CARRIER, AOCS
Mass
~100 kg wet, ~100 kg dry
Launch date (UTC)
2023-06-12 (3 years ago)
Launch vehicle
FALCON 9
Launch site
Air Force Western Test Range (AFWTR)
Object type
Payload
Rocket body
Debris
Shape & HBR
Box, 0.3 m
Radar Cross Section
0.065 m², Medium (>0.1 m² and < 1m²)

Expand to show TLE details & history
Last TLE update: 7 months ago

TLE from 7 months ago
0 SKYKRAFT-3
1 56229U 23084BN  25348.00446311  .08581552  26247-5  73748-3 0  9994
2 56229  97.5557 136.6876 0009231 280.3287  79.6971 16.39389170140333
Epoch: 2025-12-14T00:06Z
TLE epoch observation values (Epoch: 2025-12-14T00:06:25.612Z)
Latitude
-0.00002°
Longitude
52.15728°
Altitude
169.598 km
Speed
7.805 km/s
True Right ascension
09h 06m 45s
True Declination
0° 00' 00"
Sunlit
Object was in full shadow at epoch
Visualization orbit readout
Latitude
Unknown
Longitude
Unknown
Altitude
Unknown
Speed
Unknown
Apparent Right ascension
Unknown
Apparent Declination
Unknown
Sunlit
N/A
Visualization observer readout
Local Sidereal Time
05:17:18
Azimuth
Unknown
Elevation
Unknown
Doppler factor
Unknown
Orbital elements
Apogee altitude
170.283 km
Perigee altitude
158.204 km
Semi-major axis
6,542.38 km
Eccentricity
0.00092
Inclination
97.5557°
RAAN
136.6876°
Arg. of periapsis
280.3287°
True anomaly
79.8012°
Mean anomaly
79.6971°
Eccentric anomaly
79.74915°
Mean motion
4.10147 °/min
Orbital period
87.77 mins
BSTAR
0.00073748
Loading maneuver chart data...
Computing Atmospheric mass density...

Documentation

Showing up to 5 results
|